Zurück zum Katalog

STARLINK-4586

AktivKommunikationVLEO
NORAD 53636·PAYLOAD·🇺🇸 United States

Gestartet Aug 28, 2022 von Cape Canaveral Space Force Station

Loading…

Nächste Überflüge (nächste 24 Stunden)

TLE

AktuellSource: CelesTrak SupGP

Epoche: Sep 14, 2026, 20:53 UTC

1 53636C 22104BA  26257.87062500  .00009149  00000+0  27042-3 0  2579
2 53636  53.1588  87.7367 0001311  84.2831  66.2370 15.34373215    14

Verfolge STARLINK-4586 in Echtzeit mit AllMySat

Download on the App Store